FW8443 Weather Reports


time (UTC)temp
F
wind
direction
speed
knots
gust
knots
rain 1hr
in
rain 24hr
in
rain mn
in
humidity
%
barometer
mb
20260504194532 69 180 5.2 12.2 0.00 0.00 0.00 41 1011.5
20260504193035 70 132 4.3 11.3 0.00 0.00 0.00 40 1011.4
20260504191540 70 163 3.5 13.9 0.00 0.00 0.00 41 1011.5
20260504190035 71 299 2.6 8.7 0.00 0.00 0.00 41 1011.5
20260504184534 70 268 4.3 12.2 0.00 0.00 0.00 38 1011.5
20260504183037 70 30 2.6 9.6 0.00 0.00 0.00 37 1011.9
20260504181535 69 268 3.5 8.7 0.00 0.00 0.00 38 1012.0
20260504180036 69 202 2.6 10.4 0.00 0.00 0.00 39 1012.2
20260504174534 69 150 3.5 13.9 0.00 0.00 0.00 38 1012.4
20260504173036 68 66 3.5 10.4 0.00 0.00 0.00 39 1012.3
20260504171536 68 229 2.6 8.7 0.00 0.00 0.00 41 1012.6
20260504081537 43 130 0.9 3.5 0.00 0.00 0.00 71 1014.3
20260504044537 37 164 0.9 1.7 0.00 0.00 0.00 80 1014.4
20260504043039 38 164 0.9 1.7 0.00 0.00 0.00 79 1014.5
20260504041535 38 164 0.9 1.7 0.00 0.00 0.00 79 1014.4
20260504040045 38 164 0.0 1.7 0.00 0.00 0.00 78 1014.3
20260504034542 38 164 0.9 3.5 0.00 0.00 0.00 78 1014.2
20260504033038 38 164 0.9 1.7 0.00 0.00 0.00 78 1014.0
20260504031543 39 164 0.9 3.5 0.00 0.00 0.00 77 1014.1
20260504030037 39 0 0.0 0.0 0.00 0.00 0.00 77 1014.2
20260504024542 39 0 0.0 1.7 0.00 0.00 0.00 75 1014.0
20260504023037 40 141 0.9 1.7 0.00 0.00 0.00 75 1013.9
20260504021533 40 0 0.0 0.0 0.00 0.00 0.00 72 1013.8
20260504020034 41 0 0.0 0.0 0.00 0.00 0.00 72 1013.7
20260504014533 42 0 0.0 0.0 0.00 0.00 0.00 70 1013.6
20260504013038 43 0 0.0 0.0 0.00 0.00 0.00 68 1013.6
20260504011535 43 0 0.0 0.0 0.00 0.00 0.00 68 1013.4
20260504010036 44 0 0.0 0.0 0.00 0.00 0.00 65 1013.3
20260504004536 45 0 0.0 0.0 0.00 0.00 0.00 61 1013.0
20260504003043 46 0 0.0 1.7 0.00 0.00 0.00 58 1012.8
20260504001540 48 0 0.0 0.0 0.00 0.00 0.00 51 1012.6
20260504000057 50 0 0.0 0.0 0.00 0.00 0.00 46 1012.5
20260503234540 51 0 0.0 2.6 0.00 0.00 0.00 42 1012.4
20260503233032 52 292 0.9 8.7 0.00 0.00 0.00 42 1012.3
20260503231534 53 264 0.9 6.1 0.00 0.00 0.00 42 1012.2
20260503230038 53 302 1.7 7.8 0.00 0.00 0.00 40 1012.0
20260503224536 53 302 2.6 8.7 0.00 0.00 0.00 41 1012.1
20260503223040 53 348 4.3 9.6 0.00 0.00 0.00 41 1011.9
20260503221548 54 316 3.5 9.6 0.00 0.00 0.00 44 1011.8
20260503220038 54 330 3.5 14.8 0.00 0.00 0.00 43 1012.0
20260503214533 54 360 3.5 12.2 0.00 0.00 0.00 45 1011.9
20260503213037 54 360 4.3 12.2 0.00 0.00 0.00 43 1011.8
20260503211539 54 33 4.3 10.4 0.00 0.00 0.00 44 1011.9
20260503210037 53 306 6.1 13.0 0.00 0.00 0.00 40 1011.8
20260503204537 53 348 5.2 18.2 0.00 0.00 0.00 46 1011.7
20260503203056 54 336 3.5 17.4 0.00 0.00 0.00 42 1011.5
20260503201538 53 340 4.3 15.6 0.00 0.00 0.00 44 1011.5
20260503200037 53 292 5.2 16.5 0.00 0.00 0.00 43 1011.5